Location: Bord�res
(43.2000°N, 0.2167°W)
Time: 12:12:26
(UTC+00:00)

Meteor 1-14 Rocket - Pass Details

Date: 03 March 2021
Orbit: 834 x 918 km, 81.3° (Epoch: 20 April)

Event Time Altitude Azimuth Distance (km) Brightness Sun altitude
Rises 19:19:48 0° 195° (SSW) 3,400 7.5 -16.7°
Reaches altitude 10° 19:22:14 10° 198° (SSW) 2,459 6.7 -17.1°
Maximum altitude 19:27:46 69° 281° (WNW) 898 4.5 -18.1°
Drops below altitude 10° 19:33:18 10° 5° (N) 2,455 6.7 -19.1°
Sets 19:35:44 0° 8° (N) 3,394 7.4 -19.5°
